GW4858 Weather Reports


time (UTC)temp
F
wind
direction
speed
knots
gust
knots
rain 1hr
in
rain 24hr
in
rain mn
in
humidity
%
barometer
mb
20260504004724 50 319 0.0 0.0 0.00 0.00 0.00 48 1015.3
20260504004221 51 315 0.0 0.0 0.00 0.00 0.00 47 1015.3
20260504003717 51 318 0.0 0.0 0.00 0.00 0.00 46 1015.4
20260504003214 51 317 0.0 0.0 0.00 0.00 0.00 45 1015.3
20260504002711 52 319 0.0 0.0 0.00 0.00 0.00 44 1015.2
20260504002208 53 319 0.0 0.0 0.00 0.00 0.00 43 1015.1
20260504001706 53 318 0.0 0.0 0.00 0.00 0.00 42 1014.9
20260504001202 54 314 0.0 0.0 0.00 0.00 0.00 41 1014.9
20260504000659 54 313 0.0 0.0 0.00 0.00 0.00 40 1014.9
20260504000156 55 317 0.0 0.0 0.00 0.00 0.00 39 1014.7
20260503235654 55 321 0.0 0.0 0.00 0.00 0.00 38 1014.8
20260503235151 56 321 0.0 0.0 0.00 0.00 0.00 37 1014.8
20260503234649 56 309 0.0 0.9 0.00 0.00 0.00 36 1014.5
20260503234147 57 314 0.0 0.9 0.00 0.00 0.00 36 1014.7
20260503233643 57 319 0.0 1.7 0.00 0.00 0.00 36 1014.5
20260503233139 57 241 0.0 0.9 0.00 0.00 0.00 35 1014.6
20260503232636 58 330 0.0 0.9 0.00 0.00 0.00 35 1014.5
20260503232133 58 285 0.9 0.9 0.00 0.00 0.00 34 1014.7
20260503231632 58 250 0.9 1.7 0.00 0.00 0.00 34 1014.6
20260503231127 59 337 0.0 2.6 0.00 0.00 0.00 33 1014.6
20260503230625 59 350 0.0 2.6 0.00 0.00 0.00 33 1014.4
20260503230122 59 341 0.9 1.7 0.00 0.00 0.00 33 1014.4
20260503225620 59 210 0.0 1.7 0.00 0.00 0.00 33 1014.4
20260503225119 59 345 1.7 1.7 0.00 0.00 0.00 33 1014.3
20260503224617 59 350 2.6 2.6 0.00 0.00 0.00 33 1014.3
20260503224114 59 227 1.7 5.2 0.00 0.00 0.00 33 1014.2
20260503223612 59 283 0.9 1.7 0.00 0.00 0.00 33 1014.2
20260503223108 59 295 0.0 2.6 0.00 0.00 0.00 33 1014.1
20260503222606 60 318 0.9 5.2 0.00 0.00 0.00 33 1014.1
20260503222103 60 318 0.9 6.1 0.00 0.00 0.00 33 1014.3
20260503221601 60 339 0.9 3.5 0.00 0.00 0.00 32 1014.1
20260503221058 60 339 3.5 6.1 0.00 0.00 0.00 33 1014.2
20260503220554 60 233 1.7 3.5 0.00 0.00 0.00 32 1014.2
20260503220052 60 336 0.9 1.7 0.00 0.00 0.00 32 1014.0
20260503215549 60 331 1.7 7.0 0.00 0.00 0.00 32 1014.0
20260503215046 60 322 0.0 2.6 0.00 0.00 0.00 32 1014.0
20260503214544 60 334 1.7 8.7 0.00 0.00 0.00 32 1014.1
20260503214040 60 305 0.9 3.5 0.00 0.00 0.00 32 1014.2
20260503213539 60 322 0.9 6.1 0.00 0.00 0.00 32 1014.0
20260503213035 60 339 0.0 3.5 0.00 0.00 0.00 33 1014.1
20260503212532 60 12 3.5 5.2 0.00 0.00 0.00 33 1014.2
20260503212030 60 350 1.7 2.6 0.00 0.00 0.00 33 1014.0
20260503211526 60 355 1.7 3.5 0.00 0.00 0.00 32 1013.8
20260503211022 60 302 1.7 2.6 0.00 0.00 0.00 33 1013.9
20260503210519 60 234 1.7 5.2 0.00 0.00 0.00 33 1013.9
20260503210015 60 27 2.6 3.5 0.00 0.00 0.00 33 1013.9
20260503205512 60 223 1.7 6.1 0.00 0.00 0.00 33 1013.7
20260503205008 60 346 1.7 2.6 0.00 0.00 0.00 33 1013.9
20260503204505 60 177 1.7 3.5 0.00 0.00 0.00 33 1013.7
20260503204002 60 9 0.9 3.5 0.00 0.00 0.00 33 1013.7
20260503203459 60 325 1.7 5.2 0.00 0.00 0.00 34 1013.8
20260503202956 60 341 1.7 3.5 0.00 0.00 0.00 33 1013.7
20260503202454 60 344 0.9 5.2 0.00 0.00 0.00 33 1013.7
20260503201952 60 1 0.9 7.0 0.00 0.00 0.00 34 1013.8
20260503201450 60 304 0.9 2.6 0.00 0.00 0.00 34 1013.7
20260503200947 60 333 0.0 1.7 0.00 0.00 0.00 34 1013.9
20260503200443 59 317 0.9 1.7 0.00 0.00 0.00 35 1013.9
20260503195940 59 342 4.3 5.2 0.00 0.00 0.00 36 1014.1
20260503195437 58 259 0.9 6.1 0.00 0.00 0.00 35 1014.0
20260503194933 59 325 0.9 8.7 0.00 0.00 0.00 35 1014.0
20260503194430 59 287 1.7 5.2 0.00 0.00 0.00 35 1014.1
20260503193926 59 16 3.5 6.1 0.00 0.00 0.00 36 1014.3
20260503193421 59 298 1.7 6.1 0.00 0.00 0.00 36 1014.0
20260503192917 58 254 3.5 7.0 0.00 0.00 0.00 37 1014.3
20260503192414 58 341 2.6 7.8 0.00 0.00 0.00 36 1014.2
20260503191909 58 359 0.9 7.0 0.00 0.00 0.00 37 1014.2
20260503191408 58 315 0.9 2.6 0.00 0.00 0.00 38 1014.3
20260503190903 58 6 0.0 7.0 0.00 0.00 0.00 37 1014.3
20260503190401 58 324 4.3 9.6 0.00 0.00 0.00 38 1014.4
20260503185857 59 359 1.7 8.7 0.00 0.00 0.00 38 1014.4
20260503185354 59 38 1.7 3.5 0.00 0.00 0.00 39 1014.5
20260503184854 57 345 0.9 7.0 0.00 0.00 0.00 38 1014.5
20260503184350 58 264 2.6 6.1 0.00 0.00 0.00 38 1014.7
20260503183846 57 100 0.9 3.5 0.00 0.00 0.00 39 1014.6
20260503183343 56 301 1.7 6.1 0.00 0.00 0.00 39 1014.8
20260503182840 58 332 1.7 2.6 0.00 0.00 0.00 39 1014.9
20260503182340 57 263 2.6 6.1 0.00 0.00 0.00 39 1014.8
20260503181836 57 335 3.5 7.0 0.00 0.00 0.00 38 1014.9
20260503181333 57 325 1.7 2.6 0.00 0.00 0.00 39 1014.9
20260503180830 55 312 1.7 2.6 0.00 0.00 0.00 39 1014.9
20260503180328 56 357 1.7 7.0 0.00 0.00 0.00 39 1014.6
20260503175824 57 288 2.6 5.2 0.00 0.00 0.00 39 1014.7
20260503175322 57 327 0.9 8.7 0.00 0.00 0.00 39 1014.7
20260503174817 56 283 0.0 2.6 0.00 0.00 0.00 40 1014.9
20260503174316 56 340 0.9 1.7 0.00 0.00 0.00 40 1014.9
20260503173811 56 24 1.7 5.2 0.00 0.00 0.00 40 1014.9
20260503173307 55 314 0.9 1.7 0.00 0.00 0.00 40 1014.9
20260503172804 55 325 1.7 3.5 0.00 0.00 0.00 40 1014.8
20260503172301 55 359 5.2 6.1 0.00 0.00 0.00 40 1014.8
20260503171757 55 6 1.7 6.1 0.00 0.00 0.00 41 1014.9
20260503171254 55 210 1.7 5.2 0.00 0.00 0.00 40 1015.0
20260503170752 55 333 1.7 5.2 0.00 0.00 0.00 39 1014.9
20260503170248 56 331 2.6 3.5 0.00 0.00 0.00 39 1014.8
20260503160210 54 5 3.5 3.5 0.00 0.00 0.00 43 1015.2
20260503150641 53 348 1.7 6.1 0.00 0.00 0.00 44 1015.1
20260503150136 54 297 2.6 3.5 0.00 0.00 0.00 45 1015.3
20260503131030 51 322 0.9 2.6 0.00 0.00 0.00 52 1015.2
20260503130527 51 331 1.7 2.6 0.00 0.00 0.00 52 1015.1
20260503110418 47 321 0.0 0.9 0.00 0.00 0.00 56 1014.3
20260503090309 47 27 0.0 1.7 0.00 0.00 0.00 53 1012.6
20260503081242 48 325 0.9 1.7 0.00 0.00 0.00 53 1012.6
20260503080737 48 316 0.0 0.0 0.00 0.00 0.00 53 1012.7
20260503080235 48 323 0.0 0.0 0.00 0.00 0.00 53 1013.0
20260503072712 49 343 0.0 0.9 0.00 0.00 0.00 51 1012.6
20260503072209 49 326 0.0 0.0 0.00 0.00 0.00 51 1012.7
20260503071705 49 326 0.0 0.0 0.00 0.00 0.00 51 1012.7
20260503071202 49 327 0.0 0.0 0.00 0.00 0.00 51 1012.7
20260503070659 50 325 0.0 0.0 0.00 0.00 0.00 50 1012.7
20260503070157 50 331 0.0 0.0 0.00 0.00 0.00 50 1012.7
20260503060121 51 331 0.0 0.9 0.00 0.00 0.00 51 1012.9
20260503055113 51 327 0.0 0.0 0.00 0.00 0.00 52 1013.1
20260503054608 51 320 0.0 0.9 0.00 0.00 0.00 52 1013.1
20260503054105 51 319 0.0 0.9 0.00 0.00 0.00 52 1013.0
20260503053604 51 325 0.9 0.9 0.00 0.00 0.00 53 1013.0
20260503053101 51 325 0.0 0.9 0.00 0.00 0.00 53 1013.1
20260503052558 51 323 0.0 0.0 0.00 0.00 0.00 54 1013.1
20260503052054 51 324 0.0 0.0 0.00 0.00 0.00 55 1013.0
20260503051550 51 284 0.9 0.9 0.00 0.00 0.00 55 1013.2
20260503051048 51 328 0.0 0.9 0.00 0.00 0.00 56 1013.0
20260503050543 50 332 0.0 0.9 0.00 0.00 0.00 56 1013.3
20260503050041 50 325 0.0 0.0 0.00 0.00 0.00 57 1013.3
20260503045538 51 318 0.0 0.0 0.00 0.00 0.00 56 1013.5
20260503045035 51 309 0.0 0.0 0.00 0.00 0.00 56 1013.6
20260503044532 51 320 0.0 0.0 0.00 0.00 0.00 56 1013.5
20260503044030 51 311 0.0 0.0 0.00 0.00 0.00 56 1013.4
20260503043525 51 321 0.0 0.0 0.00 0.00 0.00 56 1013.6
20260503043022 51 320 0.0 0.0 0.00 0.00 0.00 57 1013.6
20260503042519 51 316 0.0 0.0 0.00 0.00 0.00 58 1013.7
20260503042015 51 319 0.0 0.9 0.00 0.00 0.00 60 1013.8
20260503041512 51 321 0.0 0.0 0.00 0.00 0.00 61 1013.9
20260503041010 51 305 0.0 0.0 0.00 0.00 0.00 62 1013.7
20260503040507 51 314 0.0 0.0 0.00 0.00 0.00 63 1013.6
20260503040004 51 321 0.0 0.0 0.00 0.00 0.00 64 1013.7
20260503035501 51 330 0.0 0.0 0.00 0.00 0.00 66 1013.4
20260503034959 51 323 0.0 0.0 0.00 0.00 0.00 67 1013.8
20260503034456 51 330 0.0 0.0 0.00 0.00 0.00 69 1013.7
20260503033953 50 314 0.0 0.0 0.00 0.00 0.00 70 1013.7
20260503033450 50 318 0.0 0.0 0.00 0.00 0.00 71 1013.7
20260503032948 50 324 0.0 0.0 0.00 0.00 0.00 72 1013.5
20260503032446 51 320 0.0 0.0 0.00 0.00 0.00 73 1013.9
20260503031943 50 317 0.0 0.0 0.00 0.00 0.00 73 1013.6
20260503031441 50 313 0.0 0.0 0.00 0.00 0.00 74 1013.6
20260503030937 50 321 0.0 0.0 0.00 0.00 0.00 75 1013.5
20260503030434 50 319 0.0 0.0 0.00 0.00 0.00 75 1013.8
20260503025931 50 317 0.0 0.0 0.00 0.00 0.00 76 1013.6
20260503025428 50 319 0.0 0.0 0.00 0.00 0.00 76 1013.6
20260503024926 50 323 0.0 0.0 0.00 0.00 0.00 77 1013.5
20260503024422 50 322 0.0 0.0 0.00 0.00 0.00 77 1013.5
20260503023919 50 322 0.0 0.0 0.00 0.00 0.00 78 1013.6
20260503023416 51 322 0.0 0.0 0.00 0.00 0.00 78 1013.8
20260503022914 51 321 0.0 0.0 0.00 0.00 0.00 78 1013.8
20260503022413 51 320 0.0 0.0 0.00 0.00 0.00 78 1013.7
20260503021909 51 313 0.0 0.0 0.00 0.00 0.00 79 1013.7
20260503021406 51 319 0.0 0.0 0.00 0.00 0.00 79 1013.6
20260503020903 51 316 0.0 0.0 0.00 0.00 0.00 79 1013.8
20260503020401 50 320 0.0 0.0 0.00 0.00 0.00 79 1013.7
20260503015857 51 325 0.0 0.0 0.00 0.00 0.00 79 1013.8
20260503015354 51 325 0.0 0.0 0.00 0.00 0.00 79 1013.9
20260503014850 51 315 0.0 0.0 0.00 0.00 0.00 78 1013.8
20260503014348 51 298 0.0 0.0 0.00 0.00 0.00 78 1013.8
20260503013845 50 318 0.0 0.0 0.00 0.00 0.00 78 1013.7
20260503013342 50 323 0.0 0.0 0.00 0.00 0.00 77 1013.7
20260503012839 50 323 0.0 0.0 0.00 0.00 0.00 77 1013.8
20260503012337 50 327 0.0 0.0 0.00 0.00 0.00 76 1013.9
20260503011834 50 309 0.0 0.0 0.00 0.00 0.00 76 1013.9
20260503011331 50 324 0.0 0.0 0.00 0.00 0.00 75 1013.7
20260503010827 50 323 0.0 0.0 0.00 0.00 0.00 75 1013.7
20260503010324 50 326 0.0 0.0 0.00 0.00 0.00 74 1013.5
20260503005821 51 322 0.0 0.0 0.00 0.00 0.00 74 1013.6
20260503005318 51 319 0.0 0.0 0.00 0.00 0.00 73 1013.7